Regional Weather Roundup
Issued by NWS

Home | Current Version | Previous Version | Graphics & Text | Print | Product List | Glossary On
Versions: 1 2 3 4 5 6 7 8 9 10 11 12 13 14 15 16 17 18 19 20 21 22 23 24 25 26 27 28 29 30 31 32 33 34 35 36 37 38 39 40 41 42 43 44 45 46 47 48 49 50
000
ASUS43 KLMK 230902
RWRKY
KENTUCKY REGIONAL WEATHER ROUNDUP
NATIONAL WEATHER SERVICE LOUISVILLE KY
500 AM EDT WED APR 23 2014

NOTE "FAIR" INDICATES FEW OR NO CLOUDS BELOW 12,000 FEET
WITH NO SIGNIFICANT WEATHER AND/OR OBSTRUCTIONS TO VISIBILITY.

KYZ001>023-026-027-061>063-070>075-231000-
WESTERN AND SOUTH CENTRAL KENTUCKY

CITY           SKY/WX    TMP DP  RH WIND       PRES   REMARKS
PADUCAH        CLEAR     48  40  73 CALM      30.01R
HENDERSON      CLEAR     50  36  57 E10       30.03R
OWENSBORO      CLEAR     48  37  65 NE7       30.03R
HOPKINSVILLE   CLEAR     49  41  74 N2        30.00R
BOWLING GREEN  CLEAR     47  34  60 NE7       30.01R
GLASGOW        NOT AVBL
$$

KYZ024-025-028>034-038-045-046-053-231000-
NORTH CENTRAL KENTUCKY

CITY           SKY/WX    TMP DP  RH WIND       PRES   REMARKS
LOUISVILLE/SDF CLEAR     47  32  56 N8        30.03R
LOUISVILLE/LOU CLEAR     48  32  53 N3        30.03R
FORT KNOX      CLEAR     44  32  62 N3        30.02R
$$

KYZ035>037-039>044-047>052-055>060-089>105-231000-
NORTHEAST KENTUCKY

CITY           SKY/WX    TMP DP  RH WIND       PRES   REMARKS
LEXINGTON      CLEAR     42  31  64 N5        30.00R
COVINGTON      CLEAR     41  31  67 NW7       30.00R
FRANKFORT      CLEAR     44  31  60 N3        30.00R
$$

KYZ054-064>069-076>088-106>120-231000-
SOUTHEAST KENTUCKY

CITY           SKY/WX    TMP DP  RH WIND       PRES   REMARKS
JACKSON        CLEAR     44  26  49 VRB6      29.96R
LONDON         CLEAR     46  30  53 N5        29.97R
SOMERSET       NOT AVBL
MIDDLESBORO    NOT AVBL
MONTICELLO     SUNNY     46  32  58 N7        30.01R
$$




USA.gov is the U.S. government's official web portal to all federal, state and local government web resources and services.